Skip Page Navigation
NASA JPL Caltech
NASA Logo - Jet Propulsion Laboratory + View the NASA Portal
+ Near-Earth Object (NEO) Program
Search JPL
JPL Home Earth Solar System Stars & Galaxies Technology
JPL Solar System Dynamics
BODIES ORBITS EPHEMERIDES TOOLS PHYSICAL DATA DISCOVERY FAQ SITE MAP
JPL Small-Body Database Browser
Search: [ help ]  
(2006 HD2)
Classification: Apollo [NEO, PHA]          SPK-ID: 3330050
Ephemeris | Orbit Diagram | Orbital Elements | Physical Parameters | Close-Approach Data ]

[ hide orbit diagram ]
Orbit Diagram
Note: Make sure you have Java enabled on your browser to see the applet. This applet is provided as a 3D orbit visualization tool. The applet was implemented using 2-body methods, and hence should not be used for determining accurate long-term trajectories (over several years or decades) or planetary encounter circumstances. For accurate long-term ephemerides, please instead use our Horizons system.
Orbit Viewer

Additional Notes: the orbits shown in the applet are color coded. The planets are white lines, and the asteroid/comet is a blue line. The bright white line indicates the portion of the orbit that is above the ecliptic plane, and the darker portion is below the ecliptic plane. Likewise for the asteroid/comet orbit, the light blue indicates the portion above the ecliptic plane, and the dark blue the portion below the ecliptic plane.

Orbit Viewer applet originally written and kindly provided by Osamu Ajiki (AstroArts), and further modified by Ron Baalke (JPL).


Orbital Elements at Epoch 2456400.5 (2013-Apr-18.0) TDB
Reference: JPL 14 (heliocentric ecliptic J2000)
 Element Value Uncertainty (1-sigma)   Units 
e .6026247236594749 2.1428e-07  
a 2.029630389956668 3.3458e-07 AU
q .8065249370781586 5.5485e-07 AU
i 4.018478067349077 4.8473e-05 deg
node 30.39030903093888 0.00012566 deg
peri 95.6608111476025 0.0002102 deg
M 176.5399698292028 9.2799e-05 deg
tp 2455882.577939736626
(2011-Nov-17.07793974)
0.00016056 JED
period 1056.145766169562
2.89
0.00026116
7.15e-07
d
yr
n .3408620396270213 8.4286e-08 deg/d
Q 3.252735842835178 5.3621e-07 AU
  Orbit Determination Parameters
   # obs. used (total)      69  
   data-arc span      1099 days (3.01 yr)  
   first obs. used      2005-10-20  
   last obs. used      2008-10-23  
   planetary ephem.      DE405  
   SB-pert. ephem.      SB405-CPV-2  
   condition code      1  
   fit RMS      .66088  
   data source      ORB  
   producer      Otto Matic  
   solution date      2011-Oct-08 00:50:40  

Additional Information
 Earth MOID = .027753 AU 
 T_jup = 3.558 
[ show covariance matrix ]

Ephemeris | Orbit Diagram | Orbital Elements | Physical Parameters | Close-Approach Data ]

Physical Parameter Table
Parameter Symbol Value Units Sigma Reference Notes
absolute magnitude H 20.986 mag .528 14 autocmod 2.5a

[ show close-approach data ]
Ephemeris | Orbit Diagram | Orbital Elements | Physical Parameters | Close-Approach Data ]
ABOUT SSD CREDITS/AWARDS PRIVACY/COPYRIGHT GLOSSARY LINKS
FirstGov 2013-May-21 08:58 UT
(server date/time)  
NASA Home Page
Site Manager:   Donald K. Yeomans
Webmaster  Alan B. Chamberlin